Wind_Speed
27 31 32 34 32 31 29 32 33 35 33 37 42 42 41 41 44 48 47 44 41 43 44 43 44 44 41 36 35 40 41 47 49 46 46 45 43 39 31 29 29 25 24
26 26 27 33 35 31 29 29 28 31 30 35 38 39 39 39 39 36 38 44 44 44 43 42 38 36 36 34 34 39 42 42 43 43 41 43 42 38 32 33 32 31 32
31 36 36 37 34 34 32 24 25 29 31 30 32 30 31 35 40 39 37 37 36 36 40 43 41 39 42 41 39 38 40 43 47 45 41 44 44 37 33 32 33 35 36
31 34 30 31 30 30 23 22 23 26 30 32 35 35 33 35 36 37 40 40 39 36 33 32 36 36 43 44 48 46 45 47 46 45 44 47 40 37 38 38 38 38 36
35 34 33 33 31 28 26 19 18 14 15 24 28 33 36 36 37 38 38 38 37 35 31 33 39 38 40 40 42 44 46 47 48 51 47 46 40 39 41 42 42 36 36
29 34 38 33 33 31 28 21 17 18 22 23 24 30 32 34 37 38 39 37 36 36 37 36 35 37 41 42 43 46 49 51 49 48 46 40 39 39 39 37 35 37 37
32 33 38 39 39 40 38 33 31 30 30 27 28 26 25 30 33 39 43 43 43 37 36 35 33 32 31 36 38 41 42 44 46 45 43 40 38 39 40 41 41 40 42
32 32 30 34 38 39 36 30 23 27 31 32 32 28 25 28 28 30 35 40 38 41 39 40 40 36 32 35 38 40 39 40 41 40 39 41 45 47 49 47 48 46 45
31 33 31 32 33 32 26 22 20 23 26 26 30 34 35 42 43 40 35 36 33 35 38 40 40 39 36 35 35 36 38 42 40 39 41 42 41 44 45 46 47 51 53
32 31 28 26 30 29 26 26 19 16 16 15 11 17 16 23 32 40 38 38 38 40 41 40 41 33 30 33 32 33 28 38 43 42 42 44 47 50 52 52 53 57 58
29 25 25 28 29 30 28 26 12 9 17 16 14 16 10 15 20 21 31 39 42 43 43 44 42 45 45 41 38 39 44 46 47 49 50 47 50 50 54 58 60 61 63
34 31 29 29 31 31 28 28 18 18 18 23 28 21 12 15 18 19 24 22 24 36 44 47 49 46 50 51 52 54 54 53 55 56 54 54 56 59 61 65 68 68 67
38 31 25 26 28 24 29 30 28 29 29 23 19 23 17 20 16 12 16 32 30 26 28 52 52 53 55 54 55 55 56 55 54 56 58 61 65 68 70 70 69 70 71
47 38 35 36 33 38 33 36 35 29 32 31 27 32 35 36 31 35 24 28 25 26 27 30 43 57 60 59 58 59 60 58 57 58 62 66 68 71 75 74 69 64 65
60 50 46 48 46 47 46 48 43 42 44 43 40 40 40 33 31 37 36 39 32 36 43 33 29 31 39 43 50 54 55 57 59 62 65 66 67 62 60 59 64 71 76
50 50 50 49 46 51 48 43 48 49 51 52 50 55 48 51 47 43 44 41 44 44 44 38 36 29 28 31 27 25 32 36 33 40 47 52 52 55 62 69 75 75 78
43 43 46 49 44 46 44 47 47 44 52 53 58 57 60 62 65 58 52 53 50 54 52 52 38 44 41 41 41 47 47 48 55 67 65 58 60 73 80 77 81 79 79
35 36 35 40 50 51 49 45 50 53 56 57 58 58 59 62 60 59 59 60 58 58 59 59 57 59 48 53 50 60 65 61 61 62 66 73 78 79 78 86 87 86 85
34 41 45 44 46 50 50 50 53 58 60 62 60 60 62 60 62 66 65 64 61 58 64 63 63 64 60 66 65 70 70 66 68 69 74 78 83 87 86 91 93 92 92
55 48 45 47 47 45 49 51 52 55 55 59 58 56 62 63 67 69 67 62 65 67 68 68 70 69 72 70 70 68 72 74 79 82 85 87 90 93 96 96 98 100 102
45 48 50 47 51 52 50 49 51 55 59 62 63 64 67 69 70 69 71 72 70 69 74 71 75 78 76 80 78 76 78 83 87 86 92 99 98 101 103 104 102 103 103
48 52 52 48 46 53 55 54 54 57 59 62 63 66 65 65 69 70 73 74 76 76 77 79 82 80 82 84 86 86 90 90 92 97 101 103 103 105 106 105 105 106 107
54 50 49 52 55 55 54 60 65 68 72 70 70 71 72 73 73 76 77 78 81 81 85 86 88 90 90 92 93 93 97 99 104 105 108 108 109 108 107 105 106 106 102
66 67 67 67 67 60 61 66 67 65 68 72 74 73 76 78 79 81 82 85 86 88 91 92 93 96 98 97 99 106 106 109 110 107 108 111 108 104 101 100 98 94 92
67 70 74 75 76 76 71 71 71 72 74 78 79 80 82 84 85 87 87 89 93 95 95 95 99 102 105 104 107 109 110 110 106 108 102 99 94 93 91 91 90 89 89
73 76 79 80 78 76 77 79 80 82 85 85 86 89 91 91 93 94 97 99 100 103 105 108 109 110 110 114 113 109 107 101 100 95 91 90 87 83 77 74 74 74 75
Wind_Direction
246 249 247 248 244 239 246 246 248 250 249 257 253 245 239 239 240 241 244 241 241 242 244 247 258 257 261 251 266 263 266 259 266 277 279 281 285 289 278 269 276 276 268
236 238 240 245 248 245 244 249 255 253 257 247 251 246 248 243 239 243 247 250 253 252 254 261 263 262 257 256 261 255 262 252 254 270 276 279 284 280 275 272 272 275 272
239 234 234 239 246 248 255 253 253 250 243 242 243 252 247 253 250 248 251 255 257 257 256 256 260 259 253 256 252 252 255 257 256 267 273 279 284 271 270 269 273 275 271
234 237 243 247 251 255 251 253 250 253 248 241 237 238 243 248 254 253 253 256 257 259 257 259 256 253 251 258 251 252 251 252 259 265 272 280 278 268 267 267 271 272 268
235 237 244 249 254 249 248 239 239 245 248 245 244 241 243 247 249 253 253 253 255 255 254 260 255 253 257 254 250 246 246 249 255 264 269 273 272 264 266 272 273 264 267
245 244 243 251 249 246 247 245 260 262 263 258 269 255 252 252 248 248 250 254 253 250 246 252 253 254 256 254 251 253 253 258 261 266 266 268 266 265 265 267 266 269 273
245 249 244 247 247 245 252 262 269 269 261 268 268 275 269 262 256 249 251 255 254 251 245 246 253 255 256 259 260 261 261 264 264 265 259 258 258 260 261 260 264 268 272
249 245 246 244 238 240 246 262 268 271 277 267 256 259 268 266 271 273 264 256 256 252 253 255 256 257 266 262 262 265 266 265 260 263 261 265 261 263 263 262 266 269 271
249 250 247 241 237 243 244 220 240 270 275 278 269 268 280 266 262 268 267 256 252 253 258 257 257 261 263 264 268 268 272 263 265 272 271 270 273 269 266 266 272 272 282
255 257 245 228 228 232 214 226 247 264 260 254 281 307 311 298 264 260 262 261 247 245 252 255 253 254 251 252 260 265 272 261 265 256 262 265 269 276 281 281 282 284 287
252 246 227 222 221 213 219 222 255 258 229 257 296 324 332 344 346 312 281 263 255 244 241 247 248 249 246 244 248 252 260 266 271 273 276 279 282 280 281 284 287 290 294
236 225 216 216 217 222 232 237 262 281 264 260 282 301 319 341 341 338 356 350 301 262 245 245 250 254 255 254 259 264 269 272 275 278 280 282 285 286 288 289 288 287 288
232 220 225 233 238 241 241 233 260 288 277 262 254 276 288 301 319 339 347 347 331 320 285 251 251 250 256 260 263 266 267 270 276 280 282 284 283 283 283 281 279 279 280
260 233 228 247 251 245 243 258 250 265 267 268 257 280 277 296 297 302 281 307 330 311 313 302 267 257 255 258 264 267 270 275 275 273 271 272 274 273 276 274 277 281 279
226 231 235 255 258 261 263 252 256 263 264 267 270 280 288 290 296 300 298 302 306 310 319 310 298 272 264 269 268 264 262 264 272 276 276 272 274 277 275 278 281 285 288
237 239 244 247 252 254 259 253 254 259 264 267 278 283 283 291 296 296 296 295 295 304 315 303 291 265 269 282 284 262 260 287 284 291 290 280 275 277 277 281 288 289 286
247 258 253 251 250 248 253 262 258 256 262 271 275 276 284 287 292 292 294 296 295 300 302 304 297 302 277 274 271 273 289 295 282 286 292 296 281 280 283 288 283 292 285
255 256 255 253 246 250 254 258 264 265 265 268 271 277 280 282 285 288 289 293 296 298 299 299 307 307 291 288 295 300 289 297 301 300 295 289 290 296 289 290 291 291 290
261 276 266 262 250 246 251 253 256 260 261 262 264 272 276 280 283 285 288 287 291 292 293 296 299 302 299 301 300 300 298 299 301 297 295 293 290 293 294 291 289 289 289
257 257 254 258 253 250 255 255 255 258 260 262 267 272 276 279 280 279 279 281 288 289 295 294 297 300 299 299 295 300 298 297 296 294 294 294 296 294 293 291 289 288 287
242 246 244 243 249 243 246 251 256 261 264 270 274 273 272 272 275 276 282 284 287 291 290 292 293 295 297 295 296 298 295 292 292 292 294 294 296 292 291 290 288 288 286
228 238 244 247 245 252 257 259 263 265 265 264 265 269 273 273 274 275 280 283 286 286 289 291 293 293 295 298 299 297 295 293 292 290 292 292 293 293 289 288 287 287 286
231 235 239 247 253 256 259 262 263 266 269 270 271 274 275 276 279 279 281 282 284 287 291 293 294 295 295 295 294 296 295 294 294 294 292 293 292 291 289 287 287 286 284
240 240 239 242 245 253 256 257 262 267 268 270 272 274 275 275 278 279 280 282 286 286 289 293 292 292 294 295 293 296 295 294 293 292 291 291 290 291 290 288 286 285 283
238 243 246 249 253 255 255 258 259 264 268 269 271 273 277 279 280 282 283 284 286 288 287 287 291 291 292 289 294 295 293 293 290 291 290 290 289 288 289 288 287 286 285
243 243 244 247 249 252 254 254 255 259 262 264 266 269 270 272 274 275 278 282 284 285 287 289 290 289 291 294 294 293 292 295 291 291 290 291 291 290 290 290 290 289 287
Height
10853 10855 10856 10859 10861 10863 10865 10866 10867 10869 10870 10872 10874 10876 10879 10880 10883 10885 10887 10888 10890 10893 10895 10896 10898 10898 10897 10898 10898 10896 10895 10894 10894 10892 10890 10888 10888 10886 10884 10884 10883 10881 10880
10846 10847 10847 10849 10851 10853 10855 10856 10858 10859 10860 10862 10864 10866 10868 10870 10872 10875 10877 10878 10880 10882 10884 10885 10886 10887 10888 10888 10890 10890 10887 10886 10885 10884 10883 10882 10881 10879 10878 10878 10877 10875 10873
10839 10840 10842 10843 10845 10846 10847 10848 10850 10850 10852 10853 10856 10857 10859 10862 10862 10864 10866 10868 10870 10871 10872 10873 10874 10874 10877 10878 10880 10880 10879 10877 10876 10876 10876 10875 10873 10871 10871 10870 10869 10867 10865
10831 10834 10835 10836 10839 10839 10841 10842 10843 10844 10844 10845 10846 10848 10850 10851 10852 10853 10855 10857 10860 10861 10862 10862 10861 10862 10864 10865 10867 10869 10869 10867 10867 10868 10867 10865 10864 10863 10862 10861 10861 10859 10857
10825 10827 10829 10831 10833 10835 10837 10836 10837 10838 10839 10839 10840 10839 10841 10841 10843 10844 10845 10847 10848 10850 10851 10852 10852 10852 10853 10854 10856 10857 10858 10858 10858 10859 10858 10856 10855 10854 10853 10852 10851 10850 10849
10817 10820 10823 10825 10828 10830 10832 10834 10834 10832 10831 10831 10831 10831 10830 10830 10831 10833 10835 10837 10838 10838 10839 10841 10841 10842 10843 10844 10845 10847 10847 10848 10848 10848 10847 10846 10845 10844 10842 10843 10842 10841 10841
10810 10809 10812 10814 10817 10822 10825 10828 10828 10828 10828 10825 10823 10822 10822 10822 10823 10824 10825 10826 10827 10828 10829 10830 10831 10832 10833 10834 10834 10835 10835 10836 10836 10836 10836 10836 10836 10835 10834 10833 10832 10831 10830
10799 10799 10799 10800 10802 10808 10814 10819 10821 10822 10821 10819 10817 10815 10812 10812 10812 10812 10813 10815 10818 10819 10820 10821 10822 10824 10825 10825 10826 10826 10826 10825 10826 10827 10826 10826 10826 10824 10823 10823 10823 10821 10819
10789 10789 10790 10791 10797 10803 10805 10806 10810 10813 10814 10813 10811 10807 10803 10802 10802 10801 10801 10803 10807 10809 10811 10812 10813 10814 10815 10816 10815 10816 10816 10817 10817 10818 10816 10814 10814 10813 10812 10812 10811 10810 10809
10785 10784 10786 10787 10791 10796 10799 10802 10802 10802 10804 10805 10804 10800 10797 10794 10792 10791 10791 10791 10794 10798 10800 10802 10804 10805 10806 10807 10806 10807 10805 10806 10807 10807 10806 10804 10803 10802 10801 10800 10799 10796 10794
10781 10779 10780 10783 10788 10791 10793 10795 10795 10795 10796 10801 10801 10798 10794 10789 10786 10783 10781 10781 10783 10786 10788 10792 10791 10793 10793 10795 10797 10795 10795 10795 10795 10794 10793 10792 10791 10788 10786 10783 10782 10778 10776
10777 10776 10776 10778 10782 10784 10786 10788 10789 10789 10792 10791 10796 10793 10789 10785 10782 10780 10777 10775 10775 10777 10779 10780 10781 10781 10782 10783 10783 10783 10783 10784 10783 10782 10780 10778 10776 10773 10769 10765 10762 10759 10758
10776 10773 10773 10775 10778 10778 10779 10780 10781 10782 10782 10783 10786 10787 10785 10781 10779 10777 10776 10774 10772 10770 10771 10772 10770 10769 10769 10769 10769 10769 10768 10768 10767 10766 10764 10762 10759 10756 10752 10748 10743 10738 10738
10782 10772 10766 10765 10767 10769 10771 10772 10773 10772 10773 10774 10775 10778 10777 10774 10771 10768 10768 10769 10768 10766 10763 10760 10758 10757 10756 10755 10754 10755 10754 10753 10751 10750 10747 10744 10741 10738 10734 10730 10725 10720 10717
10757 10757 10755 10756 10759 10758 10759 10760 10762 10763 10763 10763 10764 10766 10767 10764 10762 10760 10758 10757 10758 10759 10757 10753 10749 10745 10745 10745 10743 10740 10739 10737 10738 10734 10730 10726 10723 10720 10716 10711 10709 10703 10697
10737 10740 10742 10743 10745 10745 10747 10747 10749 10751 10751 10752 10754 10754 10754 10753 10751 10750 10747 10745 10744 10746 10744 10744 10743 10740 10737 10734 10732 10729 10726 10724 10721 10719 10715 10711 10705 10702 10700 10695 10687 10681 10677
10728 10729 10728 10728 10730 10731 10732 10734 10736 10738 10739 10741 10741 10739 10739 10738 10737 10736 10734 10733 10731 10729 10729 10727 10727 10727 10725 10720 10720 10716 10712 10708 10703 10698 10693 10689 10687 10683 10677 10670 10663 10658 10652
10713 10714 10713 10715 10715 10717 10720 10721 10723 10724 10725 10726 10725 10727 10728 10725 10723 10720 10719 10717 10716 10715 10712 10711 10708 10706 10705 10702 10699 10698 10691 10687 10680 10675 10671 10666 10659 10654 10648 10642 10636 10631 10625
10700 10700 10699 10701 10702 10704 10705 10707 10709 10709 10708 10709 10710 10711 10710 10709 10707 10704 10702 10700 10698 10697 10696 10694 10689 10687 10684 10682 10675 10673 10666 10659 10655 10650 10644 10638 10633 10626 10620 10613 10607 10602 10597
10681 10684 10683 10684 10687 10690 10690 10690 10692 10692 10692 10691 10694 10696 10688 10691 10688 10685 10683 10681 10680 10678 10676 10671 10669 10666 10665 10661 10657 10650 10642 10636 10629 10624 10618 10612 10605 10597 10591 10586 10579 10574 10568
10668 10670 10668 10670 10672 10674 10675 10675 10676 10676 10675 10674 10675 10674 10674 10670 10669 10668 10665 10663 10659 10658 10654 10651 10648 10646 10639 10635 10631 10624 10618 10610 10603 10597 10588 10581 10574 10567 10560 10554 10548 10541 10535
10652 10654 10654 10654 10656 10658 10658 10660 10661 10660 10660 10662 10662 10657 10657 10654 10648 10649 10646 10643 10637 10634 10633 10629 10622 10617 10613 10606 10600 10593 10588 10582 10574 10566 10557 10548 10540 10534 10526 10518 10510 10503 10497
10636 10638 10639 10640 10640 10640 10643 10643 10641 10642 10643 10641 10639 10638 10634 10631 10627 10625 10622 10622 10615 10610 10608 10602 10594 10589 10583 10578 10569 10563 10557 10549 10539 10531 10523 10514 10505 10495 10488 10480 10472 10466 10460
10619 10622 10622 10622 10623 10626 10625 10622 10620 10622 10621 10618 10616 10615 10613 10609 10607 10602 10599 10594 10592 10588 10580 10576 10567 10561 10556 10547 10539 10531 10526 10519 10510 10500 10493 10482 10470 10459 10449 10440 10435 10428 10423
10603 10604 10604 10604 10605 10605 10605 10603 10602 10599 10599 10596 10593 10590 10588 10584 10582 10577 10573 10570 10565 10560 10555 10548 10542 10535 10526 10520 10512 10505 10495 10485 10474 10463 10455 10446 10436 10429 10420 10412 10405 10398 10392
10583 10585 10586 10586 10586 10587 10587 10587 10584 10581 10578 10575 10572 10569 10565 10562 10557 10552 10547 10543 10536 10530 10525 10519 10513 10505 10499 10489 10483 10472 10461 10452 10442 10434 10424 10417 10409 10400 10391 10384 10377 10371 10365